Theta_e
305 305 305 304 304 305 306 306 307 308 308 308 308 309 310 311 312 313 314 314 314 314 313 314 314 314 314 315 316 318 320 323 324 326 326 325 330 336 340 340 342 347 351 351 348 349 349 349 348 347 347 345 343 343 341 341 339 339 339 340 341 339 338 341 341 340 342 342 342 342 342 342 342 342 342 342 341 340 340 340 339 338 337 338 337 336
305 306 305 304 304 305 306 307 307 307 307 307 308 308 308 309 311 313 314 313 314 313 312 314 314 314 315 315 316 317 317 319 319 322 325 323 324 331 336 339 341 345 351 352 349 349 349 348 348 347 347 345 343 342 341 340 339 338 339 340 340 340 339 341 341 341 342 342 341 342 342 342 343 342 341 342 341 340 340 340 338 338 338 338 337 336
304 305 305 304 305 305 306 306 306 307 306 307 307 308 308 308 309 311 313 313 314 313 313 314 313 313 315 315 317 317 317 317 317 318 321 323 322 326 333 335 340 348 352 352 350 349 348 347 347 347 347 345 343 342 341 340 338 338 340 341 340 340 341 341 341 342 342 342 341 341 342 342 342 342 341 341 341 341 340 339 338 338 338 338 337 336
302 303 304 305 305 305 305 306 306 307 307 307 307 307 308 308 309 309 310 312 314 313 313 314 313 313 314 316 317 317 317 317 317 318 318 321 321 323 331 333 338 350 353 351 350 349 348 347 347 347 346 345 343 343 341 340 339 339 341 341 339 340 342 341 342 342 342 341 341 341 342 342 341 341 341 341 341 341 340 339 339 339 338 338 338 337
303 303 303 305 305 305 305 305 306 307 307 307 307 307 307 308 308 309 309 311 313 314 314 313 312 312 314 316 316 316 318 317 318 319 318 320 321 324 330 331 338 349 352 351 350 349 348 347 346 347 346 345 343 343 342 341 339 339 340 341 339 340 342 341 342 342 342 341 341 342 342 341 341 341 341 341 340 340 338 338 339 339 339 338 338 337
303 303 303 304 304 305 305 305 305 306 307 307 308 308 308 308 308 308 309 310 311 312 314 313 310 311 314 315 315 316 316 317 318 317 318 318 321 327 328 329 340 348 349 350 350 348 348 347 346 346 345 344 343 343 342 341 340 339 339 340 338 340 341 341 342 342 341 341 341 342 341 340 341 341 340 340 339 339 337 338 338 338 338 337 337 337
304 304 304 303 303 305 305 305 305 305 307 307 307 308 308 309 308 308 309 309 311 312 313 314 311 311 314 314 316 317 315 317 318 317 317 317 321 328 328 330 341 348 348 350 349 348 348 346 346 346 345 344 343 343 343 341 341 339 340 340 338 340 341 341 342 341 341 341 341 341 340 340 341 340 340 340 339 338 337 337 337 337 337 336 336 335
305 305 305 304 304 304 304 305 306 306 306 306 307 307 308 309 308 308 308 309 310 311 312 313 312 311 312 315 316 316 316 316 317 317 319 322 325 327 329 337 346 347 348 350 349 348 348 346 346 345 344 344 343 344 343 341 341 340 340 340 339 340 341 341 341 340 340 340 340 341 340 340 340 340 340 339 338 337 336 337 337 336 336 335 335 334
305 304 304 305 305 304 304 304 306 306 306 306 307 307 308 308 309 309 308 309 309 311 311 312 312 310 310 316 318 316 316 316 317 317 318 325 327 326 336 347 349 348 348 349 348 348 347 346 346 345 345 344 344 344 343 342 342 341 340 340 341 341 341 341 341 339 339 339 340 340 339 340 340 340 340 339 337 337 336 336 335 335 334 334 334 333
304 305 305 305 305 304 304 305 305 305 306 306 307 307 307 308 309 309 309 308 309 312 313 311 312 311 310 314 318 316 315 315 317 317 316 323 326 329 342 350 350 349 349 348 348 347 347 346 345 345 345 344 344 344 343 343 342 342 342 341 341 341 341 341 341 339 338 338 339 339 338 339 340 339 338 338 337 336 335 335 334 334 333 332 333 332
304 305 305 305 305 304 304 305 305 305 306 306 307 306 307 307 308 310 310 309 311 313 313 311 311 312 312 313 315 317 316 315 317 317 317 322 326 334 345 349 349 350 349 348 348 347 346 346 345 345 345 345 344 344 343 343 343 342 342 341 341 342 341 341 340 340 339 339 339 338 338 339 339 338 337 336 335 334 334 333 333 332 332 331 331 330
305 305 305 305 305 305 304 304 304 305 305 305 306 306 307 308 309 310 311 312 314 313 312 311 312 313 315 314 315 318 318 317 318 316 317 321 325 336 345 348 349 349 349 348 347 347 346 345 345 345 345 344 344 344 344 343 343 343 342 342 342 342 342 341 340 340 339 339 339 338 339 339 338 337 336 335 335 334 333 332 331 330 330 329 328 326
306 305 305 305 306 305 304 304 304 305 304 304 306 308 309 309 311 312 313 314 314 313 312 312 313 314 315 316 316 318 318 317 318 316 319 323 326 337 345 347 347 348 348 348 347 346 346 345 345 345 344 344 344 344 344 343 343 343 343 343 342 342 342 341 340 340 339 339 340 339 340 339 337 336 336 335 334 333 332 331 330 329 328 326 324 324
307 307 305 305 306 305 304 303 303 304 305 304 305 308 309 309 311 313 314 315 315 314 312 311 314 316 315 316 317 318 318 318 318 316 321 325 328 338 344 345 346 348 348 348 347 346 346 345 345 344 344 344 344 344 343 342 343 343 343 343 343 342 342 341 340 339 339 339 339 339 339 338 337 336 335 335 334 333 332 331 330 328 326 324 324 323
308 309 307 305 305 305 304 303 304 304 304 305 304 306 309 309 313 315 315 317 318 316 315 313 316 317 316 319 319 317 317 318 318 317 323 327 330 338 344 344 346 348 347 347 347 346 345 345 344 344 344 344 344 343 343 342 342 343 342 343 342 341 341 341 341 340 339 340 339 339 339 337 337 336 335 334 333 332 331 330 329 327 325 324 323 322
306 307 306 305 305 304 305 304 304 304 304 306 304 305 307 309 313 317 317 318 319 320 319 316 317 317 317 321 320 318 317 317 318 318 323 327 330 339 344 344 346 348 347 347 346 346 345 344 343 343 343 343 343 343 343 342 343 343 342 342 342 341 341 340 341 340 339 339 340 339 338 337 337 336 334 333 332 331 330 329 328 326 324 323 322 321
306 306 304 304 305 304 304 305 304 305 306 307 306 305 307 307 310 315 319 318 318 321 321 317 317 316 315 318 318 318 318 316 318 318 323 327 330 339 344 345 346 347 347 347 346 346 345 344 343 343 342 342 342 342 342 342 342 342 342 342 341 340 340 340 340 340 339 340 340 339 338 337 336 335 334 333 332 331 329 329 328 326 324 323 322 321
307 307 305 304 305 304 304 305 305 305 306 306 306 307 308 309 309 312 318 319 318 320 319 316 317 316 313 317 320 320 317 317 319 317 322 327 329 338 344 344 345 346 347 347 346 345 345 344 342 342 342 342 342 341 341 341 341 342 342 341 341 340 339 340 340 340 339 339 340 339 338 336 335 334 333 332 332 331 329 329 327 324 323 322 322 322
307 307 308 304 304 306 304 305 305 305 304 305 305 306 310 313 312 310 315 319 319 320 319 316 316 315 313 315 320 322 317 317 320 317 323 328 328 337 343 342 343 346 347 347 346 345 344 343 342 341 341 341 341 341 341 341 340 341 341 341 341 340 339 340 340 340 339 339 339 339 337 336 335 334 333 332 332 330 329 328 325 324 323 322 322 321
310 310 311 307 305 308 307 305 305 305 305 304 305 304 308 313 313 311 314 316 318 322 323 320 317 317 316 315 318 323 318 318 321 319 325 329 328 335 341 340 342 345 347 347 346 345 344 343 342 341 341 340 341 340 340 340 340 340 340 340 341 340 339 340 340 340 340 339 338 338 336 335 334 333 333 332 331 330 329 326 324 324 323 322 322 321
311 311 311 309 307 310 309 306 304 305 305 305 305 305 308 312 312 312 313 312 314 320 322 323 322 322 322 321 321 322 322 321 320 322 328 329 329 334 338 340 343 346 347 346 345 345 344 343 341 341 340 340 340 340 340 339 339 340 340 340 341 340 340 340 340 340 339 338 338 337 336 335 334 333 332 331 331 330 327 324 324 324 323 322 321 321
310 310 311 310 309 309 308 306 304 305 306 306 307 306 309 312 313 313 315 313 312 316 318 321 323 323 321 323 325 326 330 330 323 324 330 330 330 334 338 343 345 346 346 346 345 344 343 342 341 340 340 340 339 339 339 339 339 339 339 340 340 340 340 340 340 340 339 337 337 336 335 334 333 332 331 331 330 328 325 323 323 323 322 322 321 320
312 312 312 312 310 308 308 308 306 306 306 307 308 307 309 312 312 313 316 316 315 316 316 318 321 325 326 327 329 330 334 334 328 328 331 331 331 334 340 345 346 345 346 346 344 344 343 342 341 340 340 339 339 339 339 339 339 340 339 340 340 340 340 340 340 339 338 337 336 335 334 333 332 331 331 329 328 326 324 323 323 322 322 321 320 318
313 314 313 313 311 309 309 309 308 306 306 307 309 309 310 312 311 312 313 315 319 321 320 320 323 327 332 335 333 330 333 334 331 330 330 332 333 334 341 346 346 346 346 345 344 343 343 341 340 340 340 339 339 339 339 339 339 340 339 339 340 339 340 340 339 338 337 336 335 334 333 331 331 330 329 329 327 324 323 323 322 322 321 320 318 317
313 314 313 313 314 312 311 312 310 307 306 307 310 309 310 311 311 313 312 313 319 321 318 321 324 324 331 340 334 328 332 334 332 332 332 333 332 335 342 346 346 346 346 345 344 343 342 342 341 340 340 339 339 339 339 339 339 339 339 339 339 339 340 339 339 337 336 335 334 333 332 331 330 329 328 327 325 323 323 323 321 321 320 319 318 316
313 315 313 313 315 315 314 314 311 307 307 309 311 311 312 312 312 314 314 314 319 320 318 321 323 320 324 334 331 328 331 332 331 334 334 331 332 337 344 346 345 346 347 345 345 344 343 342 341 341 340 339 339 339 339 339 339 339 339 339 339 339 339 339 338 337 336 334 333 332 331 330 329 328 328 326 324 323 323 322 321 321 320 319 318 317
314 316 315 314 315 315 314 313 310 309 310 311 313 312 312 312 312 313 315 315 317 321 322 321 322 321 323 328 329 327 330 332 332 335 334 332 337 342 344 345 345 346 346 345 344 344 343 342 341 341 340 339 339 339 339 339 339 339 339 339 339 339 338 338 337 336 334 333 332 331 330 329 328 328 327 325 324 323 322 321 321 321 320 319 318 317
316 316 315 314 314 314 314 313 311 311 311 311 313 312 312 313 312 313 316 317 317 321 322 320 325 328 327 330 333 330 331 335 336 337 337 337 342 345 344 345 345 345 346 345 344 344 343 342 342 341 340 339 339 339 339 339 339 339 339 338 338 338 337 337 336 335 333 332 331 330 329 329 328 327 326 324 323 322 321 321 322 321 320 319 318 317
318 318 316 315 315 316 315 315 314 312 311 310 312 313 313 313 313 315 315 316 319 324 326 327 334 334 330 333 336 333 337 341 339 339 339 340 344 345 344 345 345 346 346 345 344 344 343 342 342 341 340 339 338 338 339 339 339 338 338 338 338 337 337 336 335 333 333 331 330 330 329 328 327 326 325 323 322 321 321 322 322 321 320 319 318 316
319 319 317 316 318 319 317 317 316 315 315 312 311 311 312 312 314 316 315 316 322 329 332 334 336 333 332 337 337 333 337 340 340 342 342 341 345 345 344 345 345 345 346 345 344 343 342 342 341 340 339 338 338 338 338 338 338 338 337 337 337 337 336 335 334 333 332 331 330 329 328 326 326 325 324 322 321 321 322 322 322 321 320 319 318 316
319 319 318 318 320 320 318 317 317 317 318 316 312 311 311 313 315 315 315 320 325 329 333 335 334 331 331 335 335 333 336 339 342 345 343 342 345 344 344 346 345 345 345 344 343 343 342 342 341 340 339 338 338 338 338 338 338 337 337 337 337 336 335 334 333 332 331 330 329 328 327 325 324 324 322 321 320 321 322 322 321 320 319 318 317 315
320 320 320 320 322 322 320 318 319 318 319 318 315 312 313 314 316 317 316 319 324 331 335 335 334 332 329 329 331 333 335 338 342 345 344 344 345 345 345 345 344 344 344 342 343 342 342 342 340 340 339 337 337 338 337 338 337 336 336 336 336 335 334 333 332 331 330 329 328 327 326 324 323 322 321 320 320 321 321 321 320 319 318 318 317 315
320 321 321 321 322 324 322 321 323 322 322 320 317 315 316 318 318 318 319 320 323 334 339 335 335 333 328 328 334 336 336 336 337 340 341 342 344 344 344 344 343 343 342 341 342 341 341 341 340 339 338 337 337 337 337 337 336 336 336 335 335 334 333 332 331 330 330 328 327 326 325 323 322 321 320 320 320 321 321 320 319 318 318 317 316 314
321 322 322 321 322 323 323 324 325 324 322 321 318 316 317 319 319 318 323 327 326 333 340 339 337 332 327 331 336 336 334 333 335 340 339 339 343 345 343 342 342 342 341 340 340 341 341 341 339 338 338 337 337 337 337 337 336 336 335 335 334 333 332 331 330 329 328 327 326 325 324 323 322 321 320 320 320 320 320 319 318 318 317 317 315 314
322 322 322 321 321 322 324 325 327 324 320 319 320 321 319 320 320 320 323 327 325 327 332 334 334 331 330 334 338 337 333 331 337 346 344 340 344 347 346 344 341 340 341 340 340 340 341 341 339 337 337 337 337 336 336 336 335 335 335 334 333 332 331 330 329 329 328 327 326 324 323 322 322 321 320 319 319 319 319 319 318 317 317 316 315 314
322 321 321 320 320 322 323 324 326 325 321 322 324 322 319 319 320 320 322 322 321 324 327 327 329 329 329 331 335 336 335 333 337 344 345 346 347 346 348 348 345 340 339 338 339 341 340 339 338 337 336 337 336 336 336 335 334 334 333 333 333 331 330 329 328 328 327 326 325 323 322 321 321 320 319 319 319 319 318 318 317 317 316 315 314 313
320 320 321 321 321 323 323 325 328 326 324 329 327 322 321 321 320 322 323 323 323 324 324 323 323 324 324 325 329 333 334 336 339 339 342 349 348 343 345 348 347 344 340 336 337 339 338 338 337 336 336 336 336 336 335 334 334 333 332 332 331 330 329 328 327 327 326 325 324 323 321 320 319 319 318 318 318 318 318 318 317 316 316 315 314 313
320 321 321 321 322 323 323 327 329 325 328 335 331 326 328 327 327 327 323 323 327 325 321 320 320 322 322 323 330 335 331 333 340 341 342 345 342 340 344 345 344 343 340 336 336 337 337 337 336 335 335 335 335 335 334 333 333 332 331 331 330 329 328 327 326 326 326 325 324 323 322 321 319 319 318 318 318 318 318 317 317 316 316 314 313 313
320 322 320 320 322 323 323 326 326 325 331 337 331 327 329 329 329 325 316 319 329 329 325 322 320 322 322 323 332 338 330 332 342 343 342 343 339 338 342 342 339 339 338 336 337 337 336 336 335 334 334 334 334 334 333 332 332 331 331 330 330 329 328 326 325 325 325 324 323 322 322 320 319 319 318 318 318 318 318 317 317 317 316 315 314 313
322 322 320 321 324 324 323 325 325 325 330 332 329 327 329 330 329 322 319 325 331 331 330 326 323 322 322 326 334 336 333 340 346 342 339 342 340 337 338 339 338 338 338 337 337 337 336 335 334 334 333 333 333 333 332 332 331 331 330 330 329 328 327 325 324 324 324 323 322 321 320 319 319 318 318 319 318 318 318 318 318 317 316 315 314 313
324 322 321 323 325 324 322 324 327 328 330 330 329 328 330 330 324 320 326 330 330 330 332 330 327 324 322 330 338 339 340 346 346 342 341 342 340 337 336 336 338 339 338 337 336 335 335 334 334 333 333 333 333 332 332 331 330 330 330 329 329 328 326 325 324 323 322 322 321 320 320 319 318 318 319 318 318 318 318 318 318 317 315 314 313 313
323 323 321 322 323 323 322 323 326 328 329 328 328 329 331 331 327 325 328 330 329 331 334 333 332 330 331 341 348 346 344 344 343 344 344 342 343 343 339 338 340 339 337 336 335 335 335 334 334 333 333 333 332 331 331 331 329 329 329 329 329 328 327 325 323 322 322 321 320 320 320 320 319 319 319 318 318 318 318 318 318 317 315 314 313 313
323 323 323 322 323 323 323 323 326 328 327 326 328 332 334 336 335 332 330 329 330 333 335 334 334 333 336 345 351 348 346 345 344 345 345 343 345 345 340 340 341 339 336 335 334 334 334 333 333 333 333 332 332 331 331 330 329 328 328 328 328 328 326 324 323 322 322 321 321 321 321 320 319 319 319 318 318 318 318 318 317 317 315 314 313 312
323 323 323 323 323 322 323 324 325 328 327 325 327 332 334 333 333 331 330 330 331 332 334 335 337 336 336 342 349 350 348 346 345 345 345 344 344 343 341 340 339 337 335 334 334 334 334 334 333 333 332 332 331 330 330 329 328 328 327 328 328 326 325 323 323 322 322 322 321 321 321 320 320 319 318 318 318 318 318 318 317 315 314 314 312 311
323 321 322 323 323 323 324 324 325 327 327 325 325 329 331 331 330 328 328 329 330 332 334 335 336 337 336 339 344 345 344 346 348 346 345 344 342 340 340 339 337 335 335 333 333 333 333 333 333 332 331 331 330 330 330 329 328 327 327 328 327 326 325 323 322 322 321 321 322 321 321 320 320 319 319 318 318 318 317 317 315 314 313 313 312 311
322 320 322 325 325 324 324 325 326 326 325 325 326 326 327 330 330 328 328 329 328 330 334 335 336 337 335 336 339 338 337 341 345 343 338 336 336 334 334 334 333 333 333 332 332 333 333 333 332 331 331 330 330 330 329 329 328 327 327 328 327 326 325 324 323 322 322 322 322 322 321 320 320 320 319 318 318 318 317 315 314 312 312 311 311 310
322 320 323 325 325 325 324 325 325 325 324 324 326 325 325 328 329 330 331 332 329 328 331 333 335 335 333 333 335 334 332 333 336 336 332 331 333 332 331 331 331 331 330 330 330 332 333 333 332 331 330 330 330 330 329 329 328 328 328 328 327 326 325 324 323 322 322 322 321 320 320 319 319 318 317 316 316 315 315 314 313 312 311 310 309 309
322 321 323 325 324 325 326 325 325 326 325 325 326 326 325 326 330 332 332 331 329 328 329 331 333 334 333 332 332 331 330 329 330 330 329 328 330 330 331 332 332 331 329 329 330 332 333 332 331 331 330 330 330 330 329 329 329 328 328 328 327 326 325 324 323 322 321 321 319 318 317 317 317 316 315 314 314 313 312 312 312 311 310 310 309 308
322 322 325 326 326 328 328 325 325 326 327 327 328 327 325 326 329 331 329 327 328 329 329 330 333 333 332 332 330 329 329 329 328 327 327 327 327 327 328 329 330 330 330 330 331 332 332 332 331 331 330 330 330 330 330 329 329 328 327 326 326 326 324 322 321 320 318 318 317 315 315 315 314 314 313 312 312 311 311 310 310 310 310 310 309 308
322 325 327 327 327 329 328 325 325 326 327 329 329 327 325 325 328 329 328 327 329 330 330 331 332 332 331 331 329 327 328 329 327 326 327 328 328 327 325 325 326 328 330 330 331 332 331 331 331 330 330 330 330 330 330 329 327 326 326 325 326 325 322 320 319 317 316 315 314 314 313 313 312 312 311 310 310 309 309 308 308 308 309 309 308 306
322 325 327 326 326 327 325 324 325 325 326 328 328 326 325 325 326 328 328 327 329 332 331 329 330 332 332 331 329 328 329 330 328 327 327 328 328 326 324 324 324 326 328 329 331 331 331 331 331 330 329 330 330 329 329 328 326 325 324 323 323 323 321 318 316 315 314 313 313 313 313 312 311 311 310 310 309 309 308 307 307 307 307 307 305 305
Wind_Speed
5 4 4 6 7 9 10 12 12 12 11 12 10 10 11 9 7 9 10 12 13 9 10 17 19 18 15 14 14 11 8 8 10 10 8 9 11 12 12 12 12 13 12 16 25 29 30 33 33 32 30 29 31 33 34 34 32 31 31 30 26 27 29 26 26 28 27 25 24 25 24 23 23 22 21 19 17 16 17 16 15 14 14 14 13 12
4 5 6 9 11 12 12 12 13 14 13 12 10 9 10 10 8 9 11 13 13 10 9 14 19 19 16 13 15 16 12 9 10 10 10 11 11 10 11 13 13 11 10 15 20 23 29 32 32 32 30 30 32 32 34 33 32 31 30 29 27 28 29 28 29 30 28 26 26 26 25 24 23 22 21 20 19 18 18 16 15 14 13 14 13 13
5 6 9 12 12 12 13 12 13 15 15 12 8 7 7 7 7 10 12 12 12 10 9 13 14 16 18 14 15 18 16 13 11 12 13 14 13 11 12 13 13 12 12 16 17 19 27 31 31 30 28 30 32 32 33 32 32 31 30 29 28 29 30 30 30 30 28 26 26 26 26 25 23 21 21 22 22 20 18 16 15 14 14 13 13 14
5 6 10 13 11 12 13 13 14 12 11 10 8 7 6 7 7 8 9 11 13 12 11 13 12 11 15 15 13 16 18 18 16 15 13 13 14 14 15 14 14 16 16 18 18 17 22 27 29 28 28 29 31 31 32 31 31 31 31 30 30 30 31 32 30 28 27 26 26 25 24 24 22 21 21 21 21 20 18 17 16 16 15 13 14 15
9 10 10 12 13 14 13 12 13 9 6 8 10 9 7 9 10 9 10 12 11 14 14 12 10 8 11 15 14 13 15 17 19 17 14 12 13 15 17 16 15 18 19 19 19 17 18 21 25 28 30 30 31 31 32 32 32 32 32 31 31 30 31 32 29 27 27 27 26 24 23 23 21 21 22 22 21 20 19 18 17 17 15 14 15 16
10 12 13 13 12 13 13 11 11 9 6 7 9 11 11 12 12 12 15 14 8 8 11 11 10 6 8 16 16 13 14 14 15 18 17 16 12 12 15 15 15 18 19 20 21 19 18 20 24 28 31 31 30 30 33 34 32 33 34 32 32 31 30 31 29 27 29 29 28 27 26 25 23 23 23 23 23 22 21 20 19 18 16 15 16 15
7 11 13 16 13 12 13 11 11 10 6 5 6 10 13 14 14 14 16 13 6 6 9 11 12 6 5 13 16 15 17 16 14 16 19 19 13 12 14 12 14 16 17 18 20 20 19 20 22 25 29 31 30 30 33 35 33 34 35 33 32 30 30 31 29 28 30 31 30 29 28 27 26 24 22 23 24 23 22 21 21 19 17 17 17 16
7 10 10 13 14 12 10 8 10 11 7 5 6 10 12 14 15 16 17 12 6 7 11 13 13 8 4 9 16 19 19 19 15 15 18 17 16 16 14 12 15 18 18 17 18 20 20 21 23 25 29 32 32 32 35 37 34 33 34 33 30 30 31 31 30 29 31 32 31 29 27 26 26 25 23 24 23 23 23 22 21 21 20 19 18 17
7 11 11 11 12 9 8 8 10 11 9 7 8 11 11 12 13 15 15 12 8 7 10 13 11 9 6 6 13 19 20 19 16 17 19 17 16 17 14 13 17 19 20 19 19 19 19 21 25 29 31 32 34 35 37 38 34 31 33 32 29 30 32 31 30 30 31 32 30 29 27 25 24 24 24 25 25 24 24 23 22 22 21 20 18 17
7 10 11 10 9 7 8 9 8 8 8 8 11 12 11 11 10 11 12 10 8 8 9 14 13 8 6 5 9 14 16 17 15 18 21 17 14 14 13 15 18 18 18 19 20 20 19 23 28 30 31 33 34 37 39 37 33 31 32 31 29 30 31 31 32 31 31 31 30 29 27 26 25 25 26 27 27 26 24 23 22 21 21 20 18 17
8 10 10 8 7 7 8 9 10 11 9 8 10 10 10 10 7 7 8 6 7 8 10 16 16 9 5 6 7 9 12 15 13 15 18 16 14 13 13 16 18 18 17 17 18 19 20 25 30 30 30 31 33 36 36 34 32 32 32 30 30 29 30 32 33 32 31 31 30 29 28 27 28 28 28 28 27 26 25 24 23 23 21 20 18 17
8 10 8 7 7 8 9 10 10 10 9 7 6 5 5 6 5 6 6 5 6 7 10 14 13 9 7 6 8 10 12 14 13 14 17 17 17 14 13 16 17 17 17 16 17 17 18 21 24 26 28 30 33 34 33 31 32 33 31 31 30 29 31 33 34 33 31 30 30 29 29 28 29 30 30 29 27 27 26 26 25 23 22 20 19 18
6 8 8 8 9 8 7 7 7 7 6 6 5 4 3 3 3 4 5 5 5 7 10 11 9 7 8 8 11 15 13 12 12 14 16 17 17 16 15 16 16 16 17 16 16 16 16 17 18 21 26 29 32 33 31 31 32 32 32 31 31 31 32 33 33 32 31 30 30 30 29 28 29 30 29 29 28 27 27 27 26 24 24 23 22 20
4 6 9 9 7 6 7 5 4 4 3 5 5 4 4 3 3 4 5 5 4 7 10 11 8 5 7 9 13 16 12 12 16 16 14 16 18 18 17 17 16 17 17 16 16 16 17 16 17 21 27 29 30 32 31 31 32 32 32 32 32 32 33 32 31 31 31 30 29 29 29 28 29 28 28 29 29 28 27 27 27 26 26 26 24 21
3 4 6 8 5 5 9 7 6 5 4 5 5 4 5 4 3 3 3 2 2 5 9 9 6 4 5 8 12 14 11 11 15 15 13 16 18 18 17 18 18 18 17 16 17 17 17 18 19 23 28 29 30 31 31 31 33 33 31 32 33 31 31 32 31 31 32 29 27 27 28 28 28 27 27 28 28 28 27 27 26 26 27 25 23 21
6 6 5 7 6 6 8 8 7 7 6 5 5 6 6 4 2 2 3 3 2 5 8 6 5 5 6 8 9 14 14 12 12 13 15 16 18 19 17 17 18 17 17 16 16 17 18 19 21 25 27 29 30 31 31 31 33 33 32 32 32 31 31 32 32 31 31 29 27 27 28 28 28 27 27 26 26 26 26 26 27 27 25 24 23 23
4 5 4 7 9 8 9 9 8 7 4 4 4 5 6 5 4 3 4 5 3 5 6 4 5 6 7 10 10 12 15 13 13 15 17 19 20 21 18 17 18 18 17 16 16 17 18 18 21 25 27 29 30 30 31 33 34 34 33 31 30 29 31 31 31 31 30 28 27 27 29 29 28 27 27 26 25 25 25 26 26 26 25 24 25 25
2 4 5 7 10 10 9 10 10 10 7 5 4 3 2 4 7 5 3 4 4 4 5 5 8 8 5 8 8 9 14 14 14 17 18 19 21 22 20 19 20 20 18 18 18 18 19 17 19 24 28 30 32 32 33 34 34 33 31 30 30 31 32 31 30 31 31 29 27 28 30 29 28 28 27 26 25 26 26 26 27 27 27 26 26 26
1 3 6 8 10 10 8 8 9 11 12 9 8 6 2 2 5 6 4 3 3 3 4 6 10 8 6 8 6 7 15 15 13 16 17 19 20 20 20 21 21 20 18 18 17 16 16 16 19 25 28 29 31 32 34 34 33 32 30 29 29 30 31 31 29 30 31 30 29 29 30 29 29 29 28 27 27 27 28 28 29 29 28 28 27 26
2 1 3 6 6 5 4 5 6 7 9 10 11 9 3 1 2 4 3 3 3 3 3 6 8 6 6 9 7 9 15 14 11 12 15 19 20 18 19 19 19 19 17 17 16 15 16 16 20 27 29 29 30 31 33 34 32 30 30 29 28 28 30 30 29 30 31 31 30 30 30 30 30 30 29 28 28 28 29 30 31 30 30 29 27 26
3 2 2 4 1 2 2 5 7 7 6 7 8 8 5 2 1 3 4 5 6 4 2 5 6 6 6 6 8 12 14 13 12 11 13 17 18 19 20 19 18 18 18 17 16 16 17 17 20 27 29 28 29 30 31 32 30 29 30 30 29 30 31 31 30 31 31 31 31 32 31 31 31 31 30 29 28 28 30 32 31 30 30 29 26 24
3 3 3 4 2 2 4 7 9 11 9 6 6 7 6 3 1 3 6 6 6 5 4 5 5 6 7 5 7 11 9 9 12 14 15 16 18 18 19 20 20 19 18 18 17 17 17 16 19 24 26 26 27 28 29 30 29 29 29 30 31 31 31 31 31 32 31 31 33 34 33 32 32 31 30 29 28 29 32 32 31 30 30 28 24 22
2 2 2 4 4 5 8 9 10 14 12 8 7 7 5 3 3 4 5 5 5 5 6 6 5 7 8 6 7 9 7 7 11 16 17 15 16 17 18 20 20 20 20 18 17 16 16 16 19 23 24 25 25 27 28 28 29 30 30 30 31 31 30 31 32 32 31 33 34 34 34 32 32 31 30 29 29 30 32 33 31 30 28 24 22 20
1 2 1 3 4 7 10 10 10 13 12 9 8 7 5 6 7 7 6 7 5 5 6 5 5 8 7 5 6 8 7 7 8 14 17 15 14 16 19 20 19 19 19 18 17 16 15 15 18 19 20 22 24 25 27 27 28 29 29 29 30 30 30 31 32 31 32 34 34 34 34 32 31 31 30 29 30 31 32 32 31 28 25 22 21 22
3 2 2 2 2 3 4 4 6 10 11 7 6 7 8 10 12 8 7 9 7 6 7 5 6 8 7 5 5 6 9 10 8 9 14 15 15 16 18 19 19 19 19 18 17 17 17 17 16 15 18 22 24 25 27 27 27 28 29 30 30 30 30 31 32 31 33 34 34 34 33 32 31 31 29 29 31 32 32 32 31 27 23 22 23 24
2 2 3 2 2 3 2 2 4 7 8 6 6 9 11 13 14 8 5 8 7 6 7 6 6 9 12 10 5 5 8 10 10 8 10 13 15 16 17 18 19 19 19 20 19 18 18 17 16 16 18 22 24 25 26 27 27 28 29 30 30 31 31 31 32 33 33 35 34 33 32 32 31 30 29 30 32 33 33 32 30 26 23 24 26 25
1 1 4 5 5 4 3 4 4 7 8 8 9 10 11 12 13 9 6 9 7 2 4 6 7 13 17 14 6 4 6 6 7 8 10 12 14 16 18 18 18 18 19 20 19 18 18 17 17 17 18 21 24 26 27 28 28 28 28 29 31 31 31 32 33 34 34 34 34 33 32 31 31 30 30 32 33 34 33 32 29 26 25 26 27 25
1 2 5 8 10 10 10 11 9 7 9 10 9 10 11 11 14 12 9 9 4 0 5 9 8 11 14 13 8 1 3 2 5 8 11 13 15 16 17 19 20 19 19 19 19 19 19 17 17 16 16 20 24 25 26 27 27 28 29 30 31 32 32 33 34 34 33 33 33 32 31 30 31 31 31 32 34 34 34 32 29 27 26 26 26 25
2 2 5 7 10 11 10 11 11 6 8 9 9 10 12 14 16 14 11 12 7 4 6 7 7 10 12 12 11 4 5 4 2 7 12 14 16 18 19 20 21 20 20 20 20 20 19 18 17 16 15 19 23 25 26 26 26 27 28 29 31 31 32 34 34 34 33 32 32 31 30 30 31 32 32 32 33 34 33 32 29 27 27 26 25 23
1 2 4 5 8 9 7 8 9 7 6 9 12 15 17 17 15 12 12 14 9 3 1 5 9 12 11 11 10 5 7 7 5 5 11 16 17 18 21 22 20 20 21 21 20 19 19 18 18 17 16 18 23 25 26 26 26 27 27 28 30 30 32 34 34 34 33 31 30 31 30 30 32 32 32 33 33 33 33 31 28 28 27 26 24 23
1 2 3 2 4 6 6 6 7 7 7 10 15 20 20 16 13 13 13 9 3 1 1 4 6 11 9 8 9 6 7 8 7 8 9 14 17 17 19 20 20 20 20 21 20 19 18 17 17 17 16 19 24 27 26 26 27 27 27 28 30 31 33 35 34 33 32 31 30 31 31 31 32 32 33 33 33 33 33 30 27 28 28 25 24 24
2 2 3 2 3 4 4 4 5 7 8 10 14 18 17 12 9 10 10 6 3 3 1 2 3 9 10 9 9 4 9 9 7 9 7 7 14 17 16 16 18 20 19 19 19 18 18 18 18 18 18 20 26 29 28 27 27 27 28 29 30 32 33 33 33 32 32 32 31 31 31 32 32 32 33 33 33 32 31 28 27 29 28 25 25 25
1 1 2 2 2 3 5 5 3 3 5 8 10 12 12 8 6 9 8 8 8 5 3 1 4 8 12 12 7 5 10 9 7 9 7 3 5 12 16 16 16 17 19 19 18 18 19 18 17 18 20 23 28 30 31 31 29 28 29 30 31 33 32 32 32 31 31 32 32 31 31 32 33 32 32 33 32 31 30 28 27 29 28 26 26 25
2 1 1 2 1 3 7 5 3 1 3 5 6 9 11 9 9 10 6 9 8 5 5 3 5 8 12 10 6 6 7 7 5 8 9 5 4 7 12 14 14 15 16 16 16 17 17 16 15 18 23 25 28 30 31 31 29 28 30 31 32 32 32 31 31 31 31 31 32 31 31 31 32 32 32 32 31 31 30 29 28 28 28 27 26 25
1 1 2 3 0 3 6 5 2 4 5 4 3 9 11 9 8 9 5 11 12 8 8 5 7 9 12 9 6 6 4 5 6 7 9 9 8 7 7 8 10 13 14 13 14 14 15 14 14 17 22 25 27 29 29 30 30 29 30 32 32 31 31 31 30 30 31 30 31 31 31 31 32 32 32 32 30 30 30 29 28 27 27 27 26 25
5 3 1 2 2 2 3 2 2 5 6 7 5 5 5 4 5 7 5 10 14 11 9 7 10 10 11 12 9 7 3 3 5 6 7 8 9 8 7 7 6 9 11 13 13 14 15 18 19 21 24 26 28 29 29 30 32 31 30 32 32 30 30 30 30 30 30 30 30 31 31 31 31 31 32 32 30 29 29 29 29 27 27 27 25 25
6 4 2 1 2 2 2 2 3 5 8 6 3 1 1 2 4 5 4 7 11 11 10 11 13 12 13 13 11 7 3 5 6 3 5 7 7 8 10 9 7 8 10 13 16 17 21 24 26 27 28 28 29 30 30 31 33 32 30 30 31 30 30 30 30 30 30 30 31 31 30 31 32 32 32 32 31 30 29 29 29 28 27 27 25 25
7 6 4 1 2 1 1 2 2 4 5 4 2 6 6 7 8 4 4 4 6 8 11 13 14 12 11 9 8 5 2 6 4 3 5 6 8 8 10 11 10 9 10 14 16 18 23 27 28 29 30 29 28 30 32 33 33 32 30 29 30 30 30 29 29 31 31 31 32 32 30 30 33 33 33 33 32 31 30 29 29 28 28 28 26 25
2 7 6 3 2 1 1 1 2 2 5 5 5 9 9 12 12 2 4 4 6 3 3 8 10 10 7 5 7 6 4 4 4 5 5 7 8 9 10 12 13 11 12 18 22 22 26 30 30 30 31 29 28 30 33 35 34 31 28 28 30 29 27 28 29 31 33 32 32 32 30 31 33 35 35 35 33 32 32 31 29 26 27 28 27 26
2 4 4 2 3 1 1 1 2 3 5 6 8 11 12 12 7 3 5 5 7 10 10 7 6 10 9 5 6 7 5 5 6 6 7 8 8 8 9 11 14 14 15 20 25 28 30 32 32 29 29 29 29 31 34 35 35 32 28 27 28 27 26 28 30 31 33 33 32 32 31 31 33 35 36 36 34 33 32 31 28 25 26 28 27 26
0 1 2 3 2 2 2 2 3 3 5 6 9 11 12 8 2 5 5 6 8 11 11 10 8 9 7 4 5 5 4 5 6 6 8 8 7 8 8 8 12 17 20 23 28 31 30 31 32 31 30 30 32 33 34 34 31 30 29 27 26 25 26 29 31 31 31 32 33 32 31 32 34 35 35 35 34 32 30 30 28 25 26 28 27 27
1 1 1 1 1 1 3 1 3 4 4 7 10 10 7 3 1 3 4 6 8 9 9 10 9 5 0 4 6 4 3 4 6 7 8 7 7 9 9 9 10 14 19 25 30 31 28 26 28 29 29 31 34 34 34 32 29 28 29 27 26 26 27 30 32 32 31 32 33 33 32 32 34 34 34 34 33 31 30 30 28 26 27 27 27 27
2 2 2 1 1 1 1 1 1 3 4 9 12 8 4 3 3 4 4 6 8 7 7 8 8 7 6 4 4 4 5 6 6 6 7 6 6 8 10 13 14 14 16 21 25 29 28 24 25 27 27 29 33 34 33 31 28 27 28 27 26 27 29 32 33 33 31 31 31 32 32 33 34 33 32 33 33 31 29 29 29 28 29 28 26 26
2 2 2 2 1 1 1 2 2 4 6 8 8 5 3 2 3 3 4 6 7 6 6 6 8 8 7 5 5 5 5 5 5 6 7 6 7 9 11 13 14 14 16 18 21 26 28 24 22 25 26 28 32 33 32 31 28 26 27 28 28 28 29 33 33 32 30 30 31 31 31 32 33 32 31 32 33 30 28 28 29 30 30 29 27 26
3 4 3 3 1 1 2 4 3 4 7 6 4 4 6 6 4 3 2 4 6 7 5 5 7 8 8 8 8 7 4 1 5 7 6 4 5 7 8 12 15 16 17 19 21 25 25 24 23 24 24 26 29 31 31 30 29 26 26 29 30 29 30 32 31 30 30 30 30 30 30 30 31 31 31 33 34 33 30 29 30 30 29 29 28 26
4 6 4 2 2 2 2 3 4 5 8 8 6 6 7 7 5 4 3 4 6 8 6 5 6 7 8 9 8 9 9 6 1 3 6 8 8 8 7 7 8 11 15 17 20 22 22 22 23 23 23 24 28 29 28 28 29 28 26 29 31 31 30 31 30 29 30 30 29 29 29 30 31 32 32 32 33 33 32 31 32 31 29 28 28 27
4 5 2 2 3 1 1 3 4 4 5 8 7 8 9 9 5 4 4 4 5 7 7 7 7 7 8 10 9 9 11 11 8 8 9 9 10 10 11 9 7 8 12 14 16 20 22 20 18 20 21 22 25 27 26 25 28 29 27 29 32 31 30 31 30 29 29 29 28 28 30 32 33 33 32 31 31 32 32 32 33 33 30 29 28 26
2 3 1 2 3 2 2 3 4 3 4 6 4 5 7 8 5 4 4 4 5 6 7 8 8 7 7 8 8 8 10 12 11 10 9 9 8 7 7 9 10 11 14 16 17 20 21 19 17 19 20 20 22 24 25 24 25 26 26 28 31 31 30 31 31 30 30 29 29 29 31 33 34 33 32 31 31 31 31 31 31 32 31 30 29 26
2 2 2 2 2 2 1 0 3 4 5 6 4 3 6 8 7 5 4 3 4 6 9 9 7 6 7 7 7 8 9 10 10 11 10 9 8 8 7 3 8 15 18 18 19 22 22 21 21 22 22 21 22 22 23 23 24 25 26 29 33 34 33 33 33 31 30 30 30 29 30 31 32 31 30 28 27 27 27 28 29 29 29 28 28 27
2 2 2 1 3 3 2 1 3 2 4 6 5 5 7 8 7 6 5 4 5 8 9 9 7 7 8 7 6 5 6 7 9 10 9 7 7 9 9 10 4 9 15 16 16 19 20 21 23 24 23 23 24 23 23 24 25 26 29 31 34 35 35 33 31 29 28 28 28 28 28 28 27 27 27 26 24 23 23 23 24 25 25 26 26 25
3 3 1 2 0 4 5 1 2 3 4 6 7 9 9 8 9 8 6 5 5 7 9 9 8 8 7 7 6 4 5 6 7 9 9 6 6 10 11 8 8 5 0 6 12 17 20 22 24 24 22 23 25 25 25 25 26 28 29 30 33 35 35 32 29 27 25 26 27 28 28 28 26 26 26 25 23 23 23 22 21 22 23 25 25 23
Wind_Direction
188 202 220 215 227 227 222 224 233 241 236 233 238 243 254 256 248 243 243 250 253 248 227 221 227 232 225 216 225 241 237 207 207 211 202 191 179 177 182 176 167 166 160 156 159 155 150 152 156 159 159 159 162 164 166 167 168 171 175 178 176 178 182 180 179 180 178 175 170 165 164 163 158 157 158 156 156 163 164 161 161 158 152 155 159 159
219 210 223 220 226 234 236 231 229 240 245 242 241 241 250 255 256 251 242 241 247 256 242 221 222 230 232 218 215 229 243 239 220 209 211 213 202 186 181 177 170 167 154 150 154 150 148 151 156 160 161 160 161 163 166 167 169 171 175 179 177 175 179 181 183 183 179 177 172 168 169 167 163 163 161 154 155 161 161 160 160 156 150 152 158 160
250 231 226 223 226 233 241 244 234 232 238 244 246 243 250 255 265 266 254 242 236 246 253 235 225 225 231 222 206 217 232 243 233 212 208 211 208 195 184 179 170 161 151 149 152 150 150 152 155 159 162 162 161 162 165 167 170 171 175 182 181 178 181 184 185 183 180 178 176 175 174 169 165 167 165 157 156 157 155 153 151 151 153 155 158 160
246 245 234 226 228 233 237 244 245 239 232 234 237 239 248 248 255 266 263 253 238 237 243 242 241 232 224 215 202 208 220 233 236 225 214 206 202 198 188 179 168 159 156 155 153 151 150 151 153 158 161 160 159 161 163 166 170 172 176 182 183 181 185 187 184 181 181 179 177 177 174 170 165 164 162 154 153 153 150 148 146 151 157 159 160 161
245 252 248 233 224 230 239 240 242 247 243 234 231 232 242 247 249 255 266 270 255 241 238 238 249 243 213 203 200 204 213 222 227 228 229 218 207 200 189 178 167 160 157 155 152 150 151 151 154 158 160 160 160 161 164 168 172 174 179 183 183 183 185 186 183 182 182 177 172 168 165 165 158 153 153 149 149 151 151 149 148 152 158 160 161 160
245 247 254 253 231 221 234 242 240 239 245 247 235 229 233 242 250 254 259 268 273 253 240 232 239 247 210 202 199 203 214 222 220 220 228 230 218 199 189 178 164 160 157 154 153 152 152 151 154 158 160 161 162 164 166 169 174 177 182 187 186 185 184 183 185 185 180 174 171 166 162 160 153 147 151 152 152 154 154 152 150 152 156 156 155 153
252 244 245 256 252 230 225 236 243 239 243 247 240 238 233 234 244 253 258 257 257 269 259 239 232 242 226 207 200 198 210 220 217 212 218 228 222 194 188 177 158 156 155 154 153 152 152 152 155 159 161 162 163 165 167 172 178 179 182 188 188 186 185 184 186 184 179 176 175 173 169 165 159 153 155 158 157 157 158 156 155 153 153 150 148 148
275 271 257 257 261 250 228 224 231 234 245 246 238 244 239 232 233 244 258 260 256 276 278 261 240 233 247 216 199 192 202 216 214 204 208 221 216 190 179 168 157 156 154 154 155 154 156 158 159 161 162 163 163 165 169 175 181 181 180 185 186 185 186 187 186 182 180 180 178 177 172 167 164 160 159 162 159 159 160 157 154 149 146 146 148 153
261 271 271 267 267 259 244 233 221 219 235 251 249 251 250 244 232 232 247 256 258 268 274 271 254 230 236 229 198 186 193 212 210 199 204 210 200 179 166 158 156 157 155 155 157 157 159 160 161 161 161 162 163 166 172 177 182 181 180 183 184 184 186 188 186 183 184 184 181 179 174 166 164 162 161 162 160 158 157 153 151 149 146 149 154 159
245 257 268 272 271 268 261 256 246 231 233 243 249 258 265 261 248 235 240 247 252 254 256 264 266 249 233 219 197 184 190 206 203 198 205 204 187 167 158 157 156 156 157 157 157 158 159 160 161 160 158 161 165 169 174 177 178 179 180 184 183 182 185 188 187 185 186 186 183 180 175 169 165 161 158 157 155 155 154 150 151 154 153 155 160 164
265 268 278 282 281 292 293 282 269 258 251 246 240 250 265 267 270 261 248 236 235 244 249 254 262 272 261 217 194 185 196 203 197 196 203 197 180 166 158 158 156 157 159 160 158 157 158 159 158 157 156 160 166 172 176 175 175 177 180 184 183 182 184 187 187 185 185 185 183 181 178 173 168 164 158 154 153 153 154 152 152 156 160 163 167 168
286 274 275 281 279 287 297 296 281 269 270 274 245 230 255 264 274 278 263 227 218 238 245 250 264 280 283 248 201 193 203 202 194 195 201 194 177 164 158 158 157 158 159 158 157 156 155 154 155 156 156 160 167 174 176 172 172 176 180 182 183 182 182 184 185 183 182 181 181 182 179 174 171 167 161 156 154 154 154 153 153 157 162 165 163 161
273 262 263 271 271 264 274 289 289 287 289 282 256 219 228 248 250 260 260 236 220 240 243 249 269 270 273 261 210 200 205 201 201 202 199 190 173 160 159 159 157 158 157 157 158 158 155 155 157 157 158 163 171 176 175 171 171 175 180 181 182 182 182 183 183 182 181 179 180 181 179 175 171 166 164 161 157 157 157 157 158 162 165 162 157 156
262 258 250 254 261 244 245 260 271 282 282 262 244 204 202 225 235 239 253 245 230 249 251 253 264 258 272 260 209 200 202 196 209 210 191 178 168 159 160 160 158 159 159 160 162 160 158 159 159 159 161 167 174 176 173 170 171 175 180 182 182 183 182 180 180 181 181 180 180 181 179 176 171 167 166 165 163 163 162 163 166 169 168 163 159 157
272 272 232 229 233 214 228 238 247 267 280 269 256 231 221 216 208 220 237 228 218 266 266 258 251 227 251 244 201 200 209 198 208 207 179 169 163 155 159 160 159 161 162 163 162 161 160 158 158 161 165 170 174 174 171 170 173 175 179 182 182 182 181 178 178 180 181 179 179 179 178 175 173 171 170 169 168 168 168 169 172 172 169 163 158 153
247 259 242 243 249 228 227 233 242 259 277 281 267 247 236 223 202 221 242 237 220 263 265 253 242 229 250 258 214 206 217 210 209 198 173 167 160 152 160 162 160 164 164 162 160 159 160 157 158 163 166 170 173 173 171 170 173 176 179 181 182 181 179 178 178 179 179 177 176 176 176 175 175 174 172 169 170 172 173 175 175 172 166 158 151 149
230 253 265 265 268 261 242 233 232 231 241 274 259 235 232 242 259 257 258 263 256 264 262 251 260 255 260 268 245 220 221 214 205 193 175 168 159 153 162 165 161 165 163 160 160 159 160 159 159 163 166 169 173 173 171 173 175 177 179 178 178 179 179 179 178 179 177 175 174 174 176 176 175 174 173 171 172 175 176 178 177 168 158 152 150 152
263 273 282 271 272 273 252 239 242 236 234 256 264 265 259 253 261 258 244 248 239 259 267 252 257 258 247 255 249 225 225 219 201 190 176 168 161 156 165 166 162 165 161 159 162 160 161 160 157 162 167 171 174 173 172 174 175 176 177 176 175 178 180 179 178 178 178 175 174 175 175 175 175 175 174 174 175 175 176 177 173 162 153 152 154 158
255 267 282 263 266 283 262 232 242 246 244 249 263 286 304 220 252 249 232 231 221 235 258 255 256 255 235 234 227 210 224 222 198 184 174 168 163 158 162 165 161 160 157 159 162 160 159 159 156 162 170 173 174 172 171 172 173 174 176 176 177 179 181 180 177 177 179 178 176 176 174 172 173 173 173 175 176 175 176 173 166 159 155 155 159 163
140 205 274 247 252 316 302 225 224 243 245 248 259 271 260 173 265 262 249 250 236 218 228 259 264 253 233 229 218 215 223 217 191 176 173 170 163 156 159 163 160 158 157 159 161 159 158 157 159 165 170 173 171 169 170 171 171 171 174 177 179 179 181 181 178 175 176 177 176 173 171 170 170 171 172 175 177 177 174 169 164 161 160 161 164 168
121 158 244 260 267 28 314 231 214 216 228 230 238 249 241 222 289 304 292 257 239 235 215 245 262 256 247 234 221 224 220 208 190 173 170 170 160 152 156 160 158 156 157 158 158 159 158 154 159 166 169 170 167 165 168 170 170 169 172 177 179 179 180 179 177 175 173 173 172 170 168 169 170 172 173 175 178 178 172 166 164 163 163 164 167 170
140 156 224 271 271 222 245 247 222 213 222 221 215 229 234 226 219 272 281 257 235 244 243 243 258 262 262 247 222 221 204 187 182 165 161 165 156 149 153 155 156 154 155 160 159 156 155 152 156 163 166 167 164 163 166 168 170 171 173 177 179 180 180 177 175 175 173 170 168 168 168 168 170 172 173 173 176 176 170 166 164 163 163 165 168 172
119 132 231 257 255 253 259 264 239 218 224 234 226 224 221 220 217 219 252 265 251 260 277 283 279 267 265 250 224 216 180 160 162 149 148 158 152 146 148 151 152 154 156 158 155 152 152 152 155 158 163 166 165 164 164 166 170 174 175 176 178 180 179 177 176 175 171 167 165 166 168 168 169 171 172 173 175 174 170 167 166 165 167 166 167 168
242 154 222 266 279 268 258 262 248 219 220 235 232 223 215 221 229 220 236 266 270 262 276 299 290 274 277 268 233 211 169 152 154 142 142 152 152 144 146 148 149 152 154 152 149 149 149 149 151 154 160 166 167 166 166 167 170 172 174 176 178 179 178 177 177 173 168 165 163 165 166 166 168 169 170 173 174 172 170 169 168 169 170 165 160 162
233 169 173 268 298 265 246 269 248 210 208 225 223 218 222 231 239 236 244 262 264 247 246 261 271 270 288 296 249 189 150 153 161 142 139 150 154 146 144 148 149 148 149 148 147 148 149 150 153 157 164 168 169 169 168 168 170 171 174 177 177 177 177 177 175 170 165 163 162 163 165 165 166 167 170 173 173 172 171 171 171 170 167 161 160 164
212 160 160 213 214 186 169 217 216 190 196 219 216 219 228 239 247 246 251 260 256 243 242 247 269 287 300 300 264 144 129 153 159 137 134 147 151 145 143 146 148 147 148 148 149 151 152 154 157 160 166 169 170 169 168 168 170 171 174 176 176 176 175 173 170 166 163 162 162 163 165 165 166 168 172 174 173 173 172 171 169 166 163 162 165 169
198 200 183 220 235 242 274 264 215 165 181 209 211 221 235 244 252 255 258 257 254 281 288 269 282 296 298 293 266 145 123 164 166 133 130 143 145 144 145 146 147 148 149 149 150 152 153 156 161 163 165 168 169 168 168 168 169 170 172 173 173 172 170 166 164 162 161 162 162 164 165 166 168 170 174 175 174 174 171 168 165 163 165 169 171 172
130 224 205 226 243 250 260 266 255 196 190 210 216 229 243 247 250 249 251 261 261 201 276 275 290 302 299 302 302 305 100 171 195 151 138 144 147 145 143 143 144 145 148 150 151 153 154 158 162 161 162 165 166 166 167 168 168 170 171 170 169 168 166 162 161 160 160 161 162 164 167 168 170 172 175 175 174 173 170 166 164 166 170 173 175 174
147 233 221 233 257 259 250 262 273 242 208 216 223 235 244 242 242 244 255 273 267 207 237 285 330 321 298 295 301 323 68 64 188 158 143 144 146 145 143 143 145 146 149 152 153 155 157 159 161 161 162 163 164 164 165 166 168 169 170 169 167 166 163 161 160 160 160 161 163 165 167 167 169 173 175 174 173 172 170 166 166 171 174 176 176 175
150 233 244 250 276 281 266 268 285 276 240 227 226 232 237 238 242 246 253 260 253 214 86 14 348 315 283 272 290 327 56 51 29 88 128 140 144 147 148 147 147 149 152 155 156 158 159 159 160 160 160 161 163 164 165 167 169 169 168 168 165 163 162 161 160 161 161 162 163 165 167 167 170 174 176 175 173 172 169 166 169 173 175 177 176 174
196 233 275 297 306 295 278 272 277 274 261 244 233 232 232 232 235 242 249 253 257 287 26 48 340 294 269 264 287 326 50 54 48 63 102 135 142 145 148 149 149 152 155 157 158 159 158 157 158 159 161 165 166 166 166 167 169 169 167 165 162 161 162 161 160 161 161 162 163 164 166 168 170 174 176 175 174 171 168 166 169 172 173 176 175 174
170 239 292 1 346 300 298 300 286 278 272 258 241 231 228 225 223 236 244 238 225 234 222 53 310 272 272 283 288 346 55 58 71 76 72 111 136 142 146 150 153 154 156 157 157 158 157 157 161 163 164 166 167 167 166 166 167 167 166 163 159 159 161 161 160 160 161 162 163 163 165 167 170 173 175 175 174 171 168 167 169 172 174 175 175 177
179 261 333 25 359 300 306 315 332 347 304 267 241 224 224 221 224 246 238 205 200 185 148 208 241 251 273 285 299 17 55 60 79 100 94 67 117 141 148 152 156 156 156 158 157 157 159 162 165 167 166 166 167 168 168 167 167 167 166 162 157 157 160 160 159 159 159 161 163 164 165 167 169 172 174 175 175 173 169 167 167 170 174 175 176 180
295 326 6 11 57 285 300 323 17 20 252 248 216 202 217 216 217 240 218 159 169 156 133 200 254 272 284 291 311 353 38 59 71 110 123 117 110 136 146 153 158 156 156 158 157 157 160 163 164 164 165 166 166 166 165 165 165 165 162 160 157 157 159 159 157 157 157 160 163 165 166 167 169 173 175 176 175 174 172 170 168 170 174 176 178 181
205 73 355 331 268 273 308 3 41 236 243 274 224 191 208 219 222 246 220 159 166 156 141 186 243 265 279 285 290 306 359 58 75 100 116 125 128 122 121 137 153 156 156 155 154 155 157 157 158 159 161 162 162 162 161 160 160 160 158 158 158 157 158 157 155 156 157 159 164 166 168 170 172 174 176 177 176 174 173 172 172 173 175 177 180 182
164 140 103 290 265 286 325 29 212 254 294 306 277 191 189 219 235 264 247 182 171 151 144 200 227 233 250 260 256 243 218 89 81 100 128 143 144 140 129 122 135 154 162 161 157 158 159 158 159 158 157 158 159 160 160 158 158 158 156 156 157 157 157 156 156 158 160 160 163 167 169 171 173 175 176 177 176 174 173 172 173 175 177 178 180 182
147 131 119 221 242 259 300 281 260 305 320 308 298 34 18 280 251 240 217 192 181 161 163 205 220 218 225 239 248 239 196 81 66 95 168 161 151 152 147 138 137 153 170 171 163 159 158 157 156 155 154 155 158 160 160 158 157 157 155 154 155 155 157 157 158 161 163 163 165 167 168 171 173 174 176 177 176 175 174 173 174 176 178 178 179 180
150 146 145 164 260 258 316 312 327 327 293 256 307 341 341 334 312 247 179 230 231 185 179 200 215 224 222 218 228 233 108 84 100 207 209 172 152 151 150 151 158 166 173 171 160 150 150 151 152 152 152 153 158 161 160 158 157 155 154 154 155 155 157 159 162 164 165 166 168 170 171 173 176 177 177 178 178 176 176 175 176 178 181 180 180 180
135 132 132 153 262 288 81 312 282 270 254 253 307 332 336 329 320 309 155 250 293 320 253 219 223 246 250 213 193 177 121 124 190 223 220 185 166 161 156 159 169 173 168 163 158 151 150 151 151 152 153 154 158 162 161 158 157 155 155 157 157 158 159 162 166 169 170 170 172 175 178 180 181 182 181 181 180 179 178 178 177 179 182 183 183 181
23 101 119 184 244 257 75 297 270 249 259 286 320 330 321 312 320 90 154 240 311 336 323 298 258 249 245 207 175 164 154 180 197 204 204 191 175 166 165 169 174 171 160 157 156 151 148 149 150 153 157 158 159 161 161 159 158 157 158 159 160 161 164 166 168 171 173 174 175 178 181 183 184 184 183 182 181 181 181 180 178 179 181 182 183 182
188 103 154 186 204 200 194 249 289 268 267 304 323 318 312 313 12 121 183 258 309 320 318 324 302 257 233 186 164 175 198 194 172 168 180 182 169 160 166 173 168 159 153 151 151 150 149 152 155 157 160 159 158 159 160 160 159 157 157 160 163 166 169 170 170 170 172 176 179 179 181 183 183 183 182 182 181 180 180 181 181 180 179 179 181 181
319 343 308 193 213 209 181 202 311 286 284 327 327 315 322 2 116 194 233 274 298 307 322 333 324 307 229 135 145 157 163 135 129 145 163 173 168 155 154 155 147 145 147 147 149 151 151 152 155 156 158 158 157 159 162 161 158 156 157 162 168 170 171 172 171 171 172 176 178 179 180 182 182 181 181 181 180 179 179 182 184 183 180 179 179 181
325 314 319 336 321 282 171 108 312 261 283 333 338 333 8 76 193 235 284 294 296 316 334 329 330 351 22 76 112 114 119 120 127 150 164 170 162 147 147 151 146 142 145 146 150 153 151 150 153 155 156 157 157 160 163 161 158 158 160 165 170 170 170 171 173 173 173 173 174 177 179 180 181 181 181 181 180 178 178 182 185 186 184 181 179 180
342 338 318 326 353 14 293 250 252 267 290 332 347 328 303 292 253 262 307 304 309 337 345 331 333 346 5 31 40 53 94 124 145 157 166 177 168 155 152 149 144 144 146 145 148 150 148 147 150 152 154 156 157 160 163 162 160 161 163 168 172 170 167 170 172 173 174 174 175 177 178 179 179 179 178 180 181 180 180 182 184 184 184 182 180 180
357 339 286 258 235 161 224 256 275 296 301 320 340 295 284 289 282 283 319 329 334 342 340 329 328 337 2 27 25 18 18 235 198 176 168 164 151 153 154 146 142 142 140 138 141 145 145 145 147 149 151 153 156 160 164 163 163 164 166 171 174 172 169 170 171 171 173 175 176 177 177 176 176 175 176 179 182 182 182 181 179 178 178 178 180 181
322 317 295 267 252 198 197 262 298 326 314 312 332 326 301 290 292 321 11 16 350 335 327 327 328 339 8 27 27 18 4 338 282 113 77 60 59 52 44 62 100 120 123 126 134 140 141 142 143 146 149 152 155 160 164 165 165 166 169 173 174 174 171 170 169 170 173 175 176 176 175 172 172 174 176 177 180 181 181 180 177 174 174 177 180 182
311 317 310 294 284 239 147 297 318 350 315 304 334 342 307 286 293 344 20 16 344 332 333 339 345 360 20 28 31 29 18 11 30 69 76 72 75 76 72 64 60 85 109 123 134 138 138 140 143 145 147 153 159 161 165 169 170 170 171 172 174 175 172 169 168 168 170 173 172 169 168 167 169 171 172 172 173 176 178 179 179 176 176 179 180 182
323 354 337 277 275 239 179 262 302 327 277 276 323 345 306 291 310 356 6 338 326 341 353 351 353 8 25 27 30 39 38 33 40 57 67 68 65 69 95 118 122 123 131 138 143 143 141 142 147 149 150 156 162 162 164 168 172 173 171 169 171 172 169 167 168 166 166 168 166 163 164 166 167 168 169 169 171 173 174 177 179 180 182 184 185 185
303 325 280 255 300 292 208 174 351 337 296 287 308 322 296 298 324 359 4 330 338 13 12 1 2 17 21 22 31 45 51 54 59 63 64 66 59 33 9 35 125 135 144 149 153 152 148 147 152 154 155 160 163 162 163 164 165 168 168 165 167 166 162 163 165 164 162 162 161 161 163 165 166 167 167 169 171 174 177 181 184 187 189 191 194 195
274 270 259 46 18 310 280 40 50 3 296 295 305 309 302 309 330 359 7 348 3 29 21 3 6 27 25 18 27 53 66 72 84 88 81 73 77 66 24 351 12 130 144 151 156 155 150 148 153 155 156 160 162 161 162 162 161 163 165 166 167 165 161 159 159 159 160 159 159 162 164 164 165 166 167 167 169 171 176 183 188 194 197 199 200 203
231 225 179 82 71 256 262 265 140 173 243 284 311 322 324 327 335 347 1 359 4 29 32 17 14 24 23 12 8 25 61 77 93 104 99 84 85 90 78 45 13 360 19 156 156 155 152 150 152 154 155 158 159 160 162 162 160 161 163 163 163 164 162 159 156 156 160 162 162 165 167 167 167 168 168 169 170 171 173 177 184 194 202 202 200 202